Погода в Плешково

Россия / Тюменская область     56°04′39″N   69°41′09″E
темп.,
°C
ветер,
м/с
пор.,
м/с
влажн.,
%
обл.,
%
осадки,
мм/ч
давл.,
гПа
погр.,
м
18 мая, вт
вт1823:00+19с5105270 0.0 1012213
02:00+16сз336296 0.0 101145
05:00+17зсз4126450 0.0 1011292
08:00+20зсз4656100 0.0 1011401
11:00+23сз564689 0.0 10111179
14:00+25сз5741100 0.1 10102731
17:00+20с6955100 2.9 1011920
20:00+14ссв7127897 0.1 1014751
19 мая, ср
ср1923:00+12ссв7117459 0.1 1015900
02:00+11с51080100 0.0 1016568
05:00+10с6107812 0.1 1018462
08:00+13ссв69541 0.0 10201078
11:00+16с67405 0.0 10201840
14:00+17с783322 0.0 10202078
17:00+17с683524 0.0 10202295
20:00+14с494817 0.0 1021255
20 мая, чт
чт2023:00+9ссв3761100 0.0 1023140
02:00+7ссв396512 0.0 1024233
05:00+6ссв36655 0.0 1025142
08:00+10ссв344310 0.0 1026711
11:00+14ссз333629 0.0 10251210
14:00+17сз343797 0.0 10231541
17:00+20зсз573792 0.0 10211916
20:00+17зюз4105096 0.0 1020275
21 мая, пт
пт2123:00+16з6145098 0.0 1019323
02:00+16зсз5135531 0.0 1019296
05:00+13зсз386740 0.0 1020175
08:00+20сз46505 0.0 1020442
11:00+25сз46395 0.0 10201160
14:00+28ссз46335 0.0 10202445
17:00+28ссз343019 0.0 10202657
20:00+23з245082 0.0 102168
22 мая, сб
сб2223:00+19ю22610 0.0 102223
02:00+17зюз22580 0.0 102218
05:00+16з33590 0.0 102329
08:00+22зюз35430 0.0 1023332
11:00+27зюз46300 0.0 10222143
14:00+28зюз57260 0.0 10212727
17:00+28зюз58295 0.0 10202963
20:00+22зюз34460 0.0 102047